Location: Gebenbach
(49.5378°N, 11.8735°E)
Time: 02:16:31
(UTC+00:00)

Cosmos 1953 Rocket - Pass Details

Date: 29 October 2020
Orbit: 605 x 634 km, 82.5° (Epoch: 27 November)

Event Time Altitude Azimuth Distance (km) Brightness Sun altitude
Rises 16:31:55 0° 351° (N) 2,905 7.0 -6.6°
Reaches altitude 10° 16:34:09 10° 354° (N) 1,999 6.1 -6.9°
Maximum altitude 16:38:35 72° 79° (E) 662 3.5 -7.6°
Drops below altitude 10° 16:43:00 10° 164° (SSE) 2,000 6.1 -8.3°
Sets 16:45:15 0° 166° (SSE) 2,906 7.0 -8.7°
